This is the latest recevied weather packets stored in our database for station/object DK7LH-6. If no packets are shown the sender has not sent any weather packets the latest 10 day(s).
| Time | Temp. | Humidity | Pressure | Rain* | Wind** | Luminosity | Snow |
|---|---|---|---|---|---|---|---|
| 1778104014 | 9.44° C | 97% | 1010.2 hPa | 0 mm | - | 0 W/m² | - |
| 1778103099 | 9.44° C | 97% | 1010.1 hPa | 0 mm | - | 0 W/m² | - |
| 1778102170 | 9.44° C | 96% | 1009.9 hPa | 0 mm | - | 0 W/m² | - |
| 1778101272 | 9.44° C | 96% | 1009.9 hPa | 0 mm | - | 0 W/m² | - |
| 1778100373 | 9.44° C | 96% | 1009.9 hPa | 0 mm | - | 0 W/m² | - |
| 1778099441 | 9.44° C | 96% | 1009.8 hPa | 0 mm | - | 0 W/m² | - |
| 1778098580 | 9.44° C | 95% | 1009.9 hPa | 0 mm | - | 0 W/m² | - |
| 1778097708 | 9.44° C | 95% | 1009.8 hPa | 0 mm | - | 0 W/m² | - |
| 1778096779 | 9.44° C | 94% | 1009.8 hPa | 0 mm | - | 0 W/m² | - |
| 1778095877 | 9.44° C | 94% | 1009.6 hPa | 0 mm | - | 0 W/m² | - |
| 1778094946 | 9.44° C | 93% | 1009.4 hPa | 0 mm | - | 0 W/m² | - |
| 1778094077 | 9.44° C | 93% | 1009.2 hPa | 0 mm | - | 2 W/m² | - |
| 1778093147 | 9.44° C | 92% | 1009.1 hPa | 0 mm | - | 4 W/m² | - |
| 1778092217 | 9.44° C | 92% | 1009.1 hPa | 0 mm | - | 7 W/m² | - |
| 1778091349 | 9.44° C | 92% | 1009 hPa | 0 mm | - | 14 W/m² | - |
| 1778090419 | 9.44° C | 92% | 1008.9 hPa | 0.25 mm | - | 20 W/m² | - |
| 1778089551 | 9.44° C | 92% | 1008.9 hPa | 0.25 mm | - | 28 W/m² | - |
| 1778088621 | 8.89° C | 92% | 1008.8 hPa | 0.25 mm | - | 37 W/m² | - |
| 1778087753 | 8.89° C | 92% | 1008.7 hPa | 0.25 mm | - | 53 W/m² | - |
| 1778086823 | 8.89° C | 91% | 1008.6 hPa | 0.25 mm | - | 49 W/m² | - |
| 1778085956 | 9.44° C | 91% | 1008.5 hPa | 0.25 mm | - | 47 W/m² | - |
| 1778085026 | 9.44° C | 91% | 1008.6 hPa | 0.51 mm | - | 58 W/m² | - |
| 1778084157 | 9.44° C | 92% | 1008.6 hPa | 0.76 mm | - | 73 W/m² | - |
| 1778083227 | 9.44° C | 92% | 1008.7 hPa | 0.76 mm | - | 79 W/m² | - |
| 1778082360 | 9.44° C | 91% | 1008.7 hPa | 1.02 mm | - | 85 W/m² | - |
* Rain latest hour (hover to see other rain measurements)
** Current wind speed in m/s (hover to see current wind gust speed)